[[{"header":{"parameterUnit":"m.s-1","parameterCategory":1,"la1":30.2991,"la2":30.254,"lo1":-89.0895,"lo2":-89.0444,"dy":0.0017,"dx":0.0017,"nx":28,"ny":28,"refTime":"2025-02-24T09:00:00:Z","depth":0,"parameterNumber":2,"parameterNumberName":"U-component_of_WINDS"},"data":[0,0,0,0,0,0,0,0,0,0,0,0,0,0,0,0,0,0,0,0,0,0,0,0,0,0,0,0,0,0,0,0,0,0,0,0,0,0,0,0,0,0,0,0,0,0,0,0,0,0,0,0,0,0,0,0,0,0,1.738,1.738,0,1.7406,1.7406,1.7407,1.7359,1.7358,1.7356,1.7355,1.7382,1.7384,1.7386,0,0,0,0,0,0,0,0,0,0,0,0,0,1.729,1.7291,1.738,1.738,1.7381,1.7406,1.7406,1.7407,1.736,1.7358,1.7356,1.7354,1.7381,1.7383,1.7386,0,0,0,0,0,0,0,0,0,0,0,0,0,1.7324,1.7292,1.738,1.736,1.7359,1.7406,1.7406,1.7407,1.736,1.7358,1.7355,1.7353,1.738,1.7383,1.7386,1.7454,0,0,1.7396,1.7398,0,0,0,0,0,0,0,0,1.7322,1.7327,1.7363,1.7362,1.736,1.7377,1.7384,1.7423,1.7361,1.736,1.7355,1.7352,1.7382,1.7385,1.7395,1.7455,1.7456,1.7397,1.7399,1.74,1.7401,0,0,0,0,0,0,0,1.7319,1.7326,1.739,1.7363,1.7362,1.735,1.7352,1.7391,1.7384,1.7359,1.7356,1.736,1.7381,1.7392,1.7395,1.7457,1.7397,1.74,1.7402,1.7403,1.7574,1.7577,0,0,0,0,0,0,1.7319,1.7324,1.7389,1.7391,1.7335,1.7354,1.7356,1.7374,1.7383,1.7382,1.7362,1.7358,1.7388,1.7392,1.7396,1.7477,1.74,1.7403,1.7405,1.7572,1.7575,1.7578,0,0,0,0,0,0,1.7318,1.7326,1.7388,1.7357,1.7364,1.7358,1.7378,1.7376,1.7387,1.7385,1.7383,1.7375,1.7386,1.7391,1.744,1.7477,1.7405,1.7408,1.7569,1.7573,1.7576,1.7638,0,0,0,0,0,0,1.7315,1.7325,1.7351,1.7357,1.7365,1.7432,1.738,1.7378,1.7393,1.7387,1.7397,1.7396,1.7384,1.7435,1.7443,1.748,1.741,1.7565,1.7571,1.7575,1.7632,1.7643,1.7653,0,0,0,0,0,1.7312,1.7367,1.7353,1.7361,1.7397,1.7434,1.7439,1.7425,1.7396,1.7422,1.742,1.7396,1.7471,1.7441,1.7449,1.7488,1.7563,1.7569,1.7575,1.7628,1.7641,1.7652,0,0,0,0,0,0,1.7365,1.7368,1.7352,1.741,1.7422,1.7426,1.7458,1.7439,1.746,1.7454,1.7435,1.7437,1.749,1.7493,1.7459,1.7554,1.7512,1.752,1.755,1.7562,1.7572,1.7571,1.7413,0,0,0,0,0,1.7384,1.7413,1.7414,1.7465,1.7472,1.7465,1.748,1.7468,1.748,1.7485,1.7487,1.75,1.7526,1.7544,1.7569,1.7632,1.7634,1.7663,1.7673,1.7681,1.7688,1.7723,1.7736,1.7597,1.7597,1.7597,0,0,1.7422,1.7427,1.7447,1.7476,1.7484,1.7516,1.7469,1.7504,1.7528,1.749,1.7537,1.7539,1.7551,1.7608,1.7633,1.7613,1.7727,1.7688,1.7695,1.7698,1.773,1.7744,1.7755,1.7601,1.76,1.76,0,0,1.7509,1.7515,1.7559,1.7568,1.7581,1.7576,1.7586,1.7593,1.7593,1.7639,1.7612,1.7639,1.7685,1.7696,1.7707,1.7798,1.7776,1.7806,1.7859,1.7893,1.7904,1.7914,1.7948,1.796,1.7813,1.7814,1.7814,0,1.7555,1.7601,1.7584,1.7622,1.7636,1.7603,1.7648,1.7657,1.7678,1.7688,1.7664,1.7722,1.7728,1.7787,1.781,1.7819,1.7832,1.7806,1.7904,1.7914,1.7922,1.7954,1.7967,1.7817,1.7817,1.7816,1.7816,0,1.7658,1.7691,1.7725,1.7746,1.7763,1.7804,1.7794,1.7813,1.78,1.7796,1.7844,1.785,1.7876,1.7889,1.7875,1.7946,1.7933,1.7907,1.7865,1.794,1.7969,1.7981,1.7822,1.7821,1.782,1.7819,0,0,1.778,1.7791,1.7804,1.7813,1.7825,1.7849,1.7889,1.7914,1.7932,1.7946,1.7979,1.8019,1.7995,1.8008,1.7996,1.8026,1.8098,1.7996,1.7996,1.8016,1.8178,1.8199,1.8213,1.8083,1.8086,1.8087,1.8177,0,1.7867,1.7935,1.7921,1.7988,1.8018,1.7988,1.8022,1.8033,1.8031,1.8057,1.8054,1.8083,1.8049,1.8057,1.8085,1.8084,1.8131,1.8077,1.8115,1.8116,1.8114,1.8228,1.825,1.8334,1.8189,1.819,1.8192,0,1.7978,1.7997,1.8068,1.8075,1.8087,1.8118,1.814,1.8165,1.8177,1.8173,1.8188,1.817,1.8209,1.8166,1.822,1.8184,1.8198,1.82,1.8203,1.8207,1.816,1.8236,1.8361,1.8374,1.821,1.8208,1.8207,0,1.8061,1.8105,1.8152,1.8161,1.8171,1.8194,1.8198,1.8208,1.8224,1.8243,1.8253,1.8277,1.829,1.8308,1.8297,1.8266,1.8354,1.8309,1.8353,1.8353,1.8374,1.8373,1.8503,1.8381,1.8381,1.838,1.838,0,1.8161,1.8205,1.819,1.822,1.8269,1.8252,1.8301,1.8302,1.8311,1.834,1.8315,1.8343,1.8326,1.8353,1.8344,1.8391,1.8396,1.8395,1.8393,1.8398,1.8399,1.8409,1.8403,1.8384,1.8383,1.8382,1.8382,0,1.8263,1.8254,1.8305,1.8309,1.8312,1.8348,1.8352,1.8379,1.8375,1.8413,1.8421,1.8415,1.8445,1.8435,1.8468,1.8462,1.8522,1.8511,1.8518,1.8516,1.856,1.8557,1.8703,1.8722,1.8586,1.8587,1.8588,0,1.8327,1.8361,1.8369,1.8387,1.8394,1.8423,1.844,1.8424,1.8442,1.8458,1.8484,1.8512,1.8534,1.8584,1.8583,1.8608,1.8598,1.8647,1.8602,1.8607,1.86,1.8599,1.8603,1.8657,1.8659,1.866,1.8661,0,1.8444,1.8438,1.8462,1.8486,1.8506,1.8524,1.8539,1.8555,1.854,1.8562,1.8593,1.861,1.8643,1.8672,1.8694,1.8699,1.8678,1.8675,1.8687,1.8694,1.8697,1.8697,1.8545,1.8672,1.8671,1.867,1.867,1.8669,1.853,1.8559,1.8569,1.8598,1.8607,1.8622,1.8649,1.8648,1.8674,1.87,1.8689,1.8725,1.8736,1.8764,1.8772,1.88,1.8781,1.8797,1.8801,1.8806,1.8813,1.8691,1.8803,1.8803,1.8803,1.8802,1.8802,0,1.8646,1.8651,1.8678,1.87,1.8722,1.87,1.8716,1.8736,1.8768,1.878,1.8802,1.8838,1.8865,1.8866,1.8891,1.8914,1.8905,1.8921,1.892,1.8922,1.8827,1.8815,1.8928,1.8928,1.8928,1.8928,1.8928,1.8928,1.8709,1.8757,1.8753,1.8805,1.881,1.8845,1.8856,1.887,1.8879,1.8921,1.8943,1.8943,1.8951,1.8977,1.9001,1.9001,1.9012,1.9032,1.9028,1.8941,1.8928,1.8916,1.8905,1.9035,1.9035,1.9121,1.9121,1.9122]},{"header":{"parameterUnit":"m.s-1","parameterCategory":1,"la1":30.2991,"la2":30.254,"lo1":-89.0895,"lo2":-89.0444,"dy":0.0017,"dx":0.0017,"nx":28,"ny":28,"refTime":"2025-02-24T09:00:00:Z","depth":0,"parameterNumber":3,"parameterNumberName":"V-component_of_WINDS"},"data":[0,0,0,0,0,0,0,0,0,0,0,0,0,0,0,0,0,0,0,0,0,0,0,0,0,0,0,0,0,0,0,0,0,0,0,0,0,0,0,0,0,0,0,0,0,0,0,0,0,0,0,0,0,0,0,0,0,0,-0.6372,-0.6372,0,-0.6395,-0.6395,-0.6395,-0.6412,-0.6412,-0.6412,-0.6412,-0.6435,-0.6436,-0.6436,0,0,0,0,0,0,0,0,0,0,0,0,0,-0.6341,-0.6341,-0.6372,-0.6372,-0.6372,-0.6395,-0.6395,-0.6396,-0.6412,-0.6412,-0.6412,-0.6413,-0.6435,-0.6436,-0.6436,0,0,0,0,0,0,0,0,0,0,0,0,0,-0.6358,-0.6341,-0.6372,-0.6383,-0.6385,-0.6395,-0.6395,-0.6396,-0.6412,-0.6412,-0.6412,-0.6413,-0.6435,-0.6436,-0.6436,-0.6437,0,0,-0.6439,-0.6439,0,0,0,0,0,0,0,0,-0.6357,-0.6359,-0.6381,-0.6382,-0.6384,-0.6401,-0.6393,-0.6409,-0.6412,-0.6402,-0.6412,-0.6413,-0.6424,-0.6425,-0.6429,-0.6438,-0.6439,-0.6439,-0.6439,-0.6439,-0.644,0,0,0,0,0,0,0,-0.6356,-0.6358,-0.6381,-0.6382,-0.6383,-0.6387,-0.639,-0.6396,-0.6411,-0.6402,-0.6404,-0.6406,-0.6424,-0.6428,-0.643,-0.6439,-0.6439,-0.6439,-0.644,-0.644,-0.6449,-0.6449,0,0,0,0,0,0,-0.6353,-0.6357,-0.638,-0.6382,-0.6371,-0.6387,-0.639,-0.6395,-0.6411,-0.6414,-0.6406,-0.6407,-0.6427,-0.6429,-0.6431,-0.6432,-0.6439,-0.644,-0.644,-0.6449,-0.6449,-0.6449,0,0,0,0,0,0,-0.6352,-0.6355,-0.6379,-0.637,-0.6373,-0.6388,-0.6393,-0.6396,-0.64,-0.6414,-0.6417,-0.6408,-0.6427,-0.643,-0.6435,-0.6433,-0.644,-0.6441,-0.6449,-0.6449,-0.6449,-0.6435,0,0,0,0,0,0,-0.6351,-0.6354,-0.6355,-0.637,-0.6373,-0.6383,-0.6393,-0.6396,-0.6401,-0.6402,-0.6416,-0.6418,-0.6428,-0.6434,-0.6436,-0.6434,-0.6442,-0.645,-0.6449,-0.6449,-0.6435,-0.6434,-0.6433,0,0,0,0,0,-0.635,-0.635,-0.6355,-0.6357,-0.6374,-0.6383,-0.6386,-0.6397,-0.6401,-0.6401,-0.641,-0.6418,-0.6433,-0.6434,-0.6437,-0.6435,-0.645,-0.6449,-0.6449,-0.6436,-0.6434,-0.6433,0,0,0,0,0,0,-0.6334,-0.6352,-0.6358,-0.6362,-0.6371,-0.6386,-0.6387,-0.6394,-0.6402,-0.6403,-0.6416,-0.6419,-0.6423,-0.643,-0.6431,-0.6436,-0.6442,-0.6442,-0.6432,-0.643,-0.6429,-0.6427,-0.6442,0,0,0,0,0,-0.6331,-0.6337,-0.6352,-0.6355,-0.6359,-0.6372,-0.6376,-0.6384,-0.6394,-0.6398,-0.6407,-0.6416,-0.6423,-0.6427,-0.6434,-0.6436,-0.644,-0.6437,-0.6435,-0.6434,-0.6434,-0.6436,-0.6434,-0.6447,-0.6447,-0.6447,0,0,-0.6325,-0.6335,-0.6338,-0.6352,-0.636,-0.6365,-0.6375,-0.6381,-0.6385,-0.6398,-0.6404,-0.6411,-0.6422,-0.6426,-0.6428,-0.6432,-0.6431,-0.6433,-0.6432,-0.6433,-0.6435,-0.6434,-0.6433,-0.6447,-0.6447,-0.6447,0,0,-0.6317,-0.6325,-0.6328,-0.6336,-0.6348,-0.6357,-0.6357,-0.6371,-0.6377,-0.6383,-0.6393,-0.6398,-0.6409,-0.6417,-0.6422,-0.6416,-0.6423,-0.6418,-0.6411,-0.6413,-0.6412,-0.6411,-0.6409,-0.6408,-0.6418,-0.6418,-0.6418,0,-0.6307,-0.6317,-0.6329,-0.6334,-0.6339,-0.6352,-0.6355,-0.6362,-0.6375,-0.6379,-0.6382,-0.6397,-0.6405,-0.6411,-0.641,-0.6413,-0.6414,-0.6417,-0.6411,-0.641,-0.6409,-0.6408,-0.6407,-0.6417,-0.6417,-0.6417,-0.6417,0,-0.6305,-0.6311,-0.6312,-0.6325,-0.633,-0.6334,-0.6347,-0.6351,-0.6358,-0.6367,-0.6373,-0.6383,-0.6392,-0.6394,-0.6401,-0.6401,-0.6403,-0.6408,-0.6415,-0.6407,-0.6406,-0.6405,-0.6416,-0.6416,-0.6417,-0.6417,0,0,-0.6287,-0.6307,-0.6307,-0.6313,-0.6327,-0.6332,-0.6336,-0.6345,-0.6349,-0.6358,-0.6361,-0.6371,-0.6376,-0.6382,-0.639,-0.6391,-0.6386,-0.6397,-0.6398,-0.6395,-0.6387,-0.6382,-0.6381,-0.6391,-0.6391,-0.6391,-0.6386,0,-0.628,-0.6289,-0.6301,-0.6306,-0.6311,-0.6324,-0.6327,-0.6336,-0.6344,-0.635,-0.6359,-0.6365,-0.6372,-0.6375,-0.6377,-0.6386,-0.6385,-0.6387,-0.6395,-0.6395,-0.6391,-0.638,-0.6375,-0.637,-0.6385,-0.6385,-0.6385,0,-0.6274,-0.6283,-0.6288,-0.6302,-0.6305,-0.6308,-0.6318,-0.6323,-0.6333,-0.6339,-0.6346,-0.6354,-0.6359,-0.6365,-0.6372,-0.6373,-0.6377,-0.6382,-0.6382,-0.6383,-0.6389,-0.6381,-0.6368,-0.6367,-0.6384,-0.6384,-0.6384,0,-0.626,-0.6273,-0.6278,-0.6283,-0.6299,-0.6301,-0.6308,-0.6318,-0.6323,-0.6331,-0.6335,-0.6343,-0.6348,-0.6354,-0.6365,-0.6368,-0.6371,-0.6377,-0.6375,-0.6375,-0.6375,-0.6375,-0.6363,-0.6378,-0.6378,-0.6378,-0.6378,0,-0.6252,-0.6255,-0.6272,-0.6275,-0.6279,-0.6292,-0.6295,-0.6303,-0.6312,-0.6316,-0.6328,-0.6332,-0.6346,-0.6351,-0.6359,-0.6364,-0.6366,-0.637,-0.6373,-0.6369,-0.6369,-0.6372,-0.6372,-0.6378,-0.6378,-0.6378,-0.6378,0,-0.6237,-0.6249,-0.6255,-0.627,-0.6274,-0.6276,-0.6288,-0.6291,-0.63,-0.6306,-0.6308,-0.6321,-0.6328,-0.634,-0.635,-0.6356,-0.6359,-0.6362,-0.6355,-0.6357,-0.6354,-0.6354,-0.6343,-0.6342,-0.6358,-0.6358,-0.6358,0,-0.6231,-0.6233,-0.6249,-0.6253,-0.6259,-0.6265,-0.6271,-0.6283,-0.6288,-0.63,-0.6302,-0.631,-0.6317,-0.6328,-0.6338,-0.6347,-0.635,-0.6346,-0.6352,-0.6348,-0.635,-0.635,-0.635,-0.6345,-0.6344,-0.6344,-0.6344,0,-0.6218,-0.6224,-0.6231,-0.6241,-0.6247,-0.6254,-0.6263,-0.6265,-0.628,-0.6285,-0.6292,-0.6298,-0.6309,-0.6317,-0.6326,-0.6333,-0.6341,-0.6342,-0.6342,-0.6339,-0.6335,-0.6337,-0.6352,-0.6342,-0.6343,-0.6343,-0.6343,-0.6343,-0.6208,-0.621,-0.6222,-0.6229,-0.6237,-0.6244,-0.6248,-0.6258,-0.6264,-0.6274,-0.6281,-0.6289,-0.6299,-0.6312,-0.6319,-0.6324,-0.6328,-0.6328,-0.6328,-0.6327,-0.6326,-0.6334,-0.6326,-0.6326,-0.6326,-0.6326,-0.6326,0,-0.6196,-0.6203,-0.621,-0.6222,-0.6228,-0.6235,-0.6245,-0.6249,-0.6256,-0.6265,-0.6272,-0.628,-0.6288,-0.6299,-0.6308,-0.631,-0.6314,-0.6312,-0.6312,-0.6313,-0.6323,-0.6322,-0.6309,-0.6309,-0.6309,-0.6309,-0.6309,-0.6309,-0.619,-0.6195,-0.6202,-0.6211,-0.6219,-0.6227,-0.6232,-0.6238,-0.6246,-0.6255,-0.6262,-0.6269,-0.6279,-0.6288,-0.6296,-0.6299,-0.6301,-0.6298,-0.6302,-0.6311,-0.6312,-0.6314,-0.6313,-0.6299,-0.6299,-0.6292,-0.6292,-0.6292]}]]